Miscellaneous Local Product
Issued by NWS Hastings, NE

Home | Current Version | Previous Version | Graphics & Text | Print | Product List | Glossary On
Versions: 1 2 3 4 5 6 7 8 9 10 11 12 13 14 15 16 17 18 19 20 21 22 23 24 25 26 27 28 29 30 31 32 33 34 35 36 37 38 39 40 41 42 43 44 45 46 47 48 49 50
027
AXUS43 KGID 010202
MISGRI

GID CWA HOURLY WEATHER ROUNDUP
NATIONAL WEATHER SERVICE HASTINGS NE
900 PM CDT WED AUG 31 2016

NOTE: "FAIR" INDICATES FEW OR NO CLOUDS BELOW 12,000 FEET WITH NO
SIGNIFICANT WEATHER AND/OR OBSTRUCTIONS TO VISIBILITY.

...SOUTH CENTRAL NEBRASKA...

CITY           SKY/WX    TMP DP  RH WIND       PRES   REMARKS
GRAND ISLAND   CLEAR     67  59  75 E6        30.20R
HASTINGS       CLEAR     67  58  72 E6        30.20R
KEARNEY        CLEAR     64  57  77 E8        30.19R
ORD            CLEAR     67  58  72 CALM      30.19R
YORK           CLEAR     66  59  77 E7        30.19R
AURORA         CLEAR     65  63  91 E6        30.19R
LEXINGTON      PTCLDY    71  64  80 SE3       30.20R
HOLDREGE       CLEAR     67  62  85 E5        30.20R
HEBRON         CLEAR     66  62  89 CALM      30.17R

...NEBRASKA PANHANDLE...

CITY           SKY/WX    TMP DP  RH WIND       PRES   REMARKS
CHADRON        CLEAR     72  54  53 SE9       30.16R
ALLIANCE       CLEAR     64  56  75 SE8       30.21R
SCOTTSBLUFF    CLEAR     71  59  65 SE13      30.19S
SIDNEY         CLEAR     66  59  78 SE10      30.25R

...WESTERN AND NORTH CENTRAL NEBRASKA...

CITY           SKY/WX    TMP DP  RH WIND       PRES   REMARKS
VALENTINE      CLEAR     72  57  59 SE8       30.19R
AINSWORTH      CLEAR     70  57  64 SE8       30.21R
ONEILL         CLEAR     70  58  65 SE6       30.21R
BROKEN BOW     CLEAR     67  60  78 E5        30.20R
IMPERIAL       CLOUDY    67  62  84 SE8       30.21R
NORTH PLATTE   CLEAR     65  60  84 E6        30.20R
MCCOOK         PTCLDY    68  61  78 E6        30.20R

...EASTERN NEBRASKA...

CITY           SKY/WX    TMP DP  RH WIND       PRES   REMARKS
NORFOLK        CLEAR     65  59  81 SE3       30.19R
SO SIOUX CITY  CLEAR     67  63  87 CALM      30.17R
TEKAMAH        CLEAR     67  62  84 NE6       30.16R
COLUMBUS       CLEAR     64  55  72 CALM      30.19R
ALBION         CLEAR     67  59  77 E6        30.20R
OMAHA EPPLEY   PTCLDY    67  61  81 NW3       30.16R
OFFUTT AFB     PTCLDY    65  63  94 N2        30.15R
MILLARD        CLEAR    N/A N/A N/A CALM      30.16R
LINCOLN        CLEAR     67  61  81 NE7       30.17R
NEBRASKA CITY  CLEAR     68  61  79 NE5       30.16R
BEATRICE       CLEAR     69  62  77 CALM      30.15S
FALLS CITY     CLEAR     70  63  78 N3        30.13R

...NORTHERN KANSAS...

CITY           SKY/WX    TMP DP  RH WIND       PRES   REMARKS
GOODLAND       PTCLDY    65  62  90 SE8       30.22S
HILL CITY      CLOUDY    68  66  93 CALM      30.18R
NORTON         CLEAR     68  61  77 E5        30.18R
SMITH CENTER   PTCLDY    68  64  88 CALM      30.18R
BELOIT         CLEAR     64  61  88 NE5       30.14R
HAYS           PTCLDY    70  57  64 SE3       30.17R
RUSSELL        PTCLDY    69  67  93 NE5       30.15R
CONCORDIA      CLEAR     68  60  75 NE5       30.15R
SALINA         PTCLDY    73  70  90 N8        30.13R
TOPEKA         PTCLDY    69  61  75 N6        30.11R



USA.gov is the U.S. government's official web portal to all federal, state and local government web resources and services.